Previsão horária em Abakanovo

Hoje, 11 Abril, Domingo

Tempo Temperatura Precipitação Vento Pressão Humidade
00:00 +5°C° 0 mm 1 m/s 743 mmHg 92%
01:00 +5°C° 0 mm 1 m/s 743 mmHg 93%
02:00 +4°C° 0 mm 0 m/s 743 mmHg 93%
03:00 +4°C° 0.2 mm 0 m/s 744 mmHg 94%
04:00 +5°C° 0.2 mm 1 m/s 744 mmHg 94%
05:00 +5°C° 0.2 mm 1 m/s 744 mmHg 95%
06:00 +5°C° 0 mm 1 m/s 745 mmHg 94%
07:00 +5°C° 0 mm 1 m/s 745 mmHg 93%
08:00 +6°C° 0 mm 1 m/s 745 mmHg 93%
09:00 +6°C° 0 mm 1 m/s 746 mmHg 91%
10:00 +6°C° 0 mm 1 m/s 746 mmHg 90%
11:00 +7°C° 0 mm 1 m/s 747 mmHg 89%
12:00 +7°C° 0 mm 1 m/s 747 mmHg 88%
13:00 +7°C° 0 mm 1 m/s 747 mmHg 87%
14:00 +7°C° 0 mm 1 m/s 747 mmHg 85%
15:00 +7°C° 0 mm 1 m/s 747 mmHg 86%
16:00 +7°C° 0 mm 1 m/s 747 mmHg 87%
17:00 +7°C° 0 mm 1 m/s 747 mmHg 87%
18:00 +7°C° 0 mm 1 m/s 748 mmHg 88%
19:00 +6°C° 0 mm 2 m/s 748 mmHg 88%
20:00 +6°C° 0 mm 2 m/s 748 mmHg 88%
21:00 +6°C° 0 mm 2 m/s 748 mmHg 89%
22:00 +6°C° 0 mm 2 m/s 748 mmHg 90%
23:00 +6°C° 0 mm 2 m/s 748 mmHg 90%

Amanhã, 12 Abril, Segunda-feira

Tempo Temperatura Precipitação Vento Pressão Humidade
00:00 +5°C° 0 mm 2 m/s 749 mmHg 90%
01:00 +5°C° 0 mm 2 m/s 749 mmHg 90%
02:00 +5°C° 0 mm 2 m/s 749 mmHg 89%
03:00 +4°C° 0 mm 2 m/s 749 mmHg 89%
04:00 +4°C° 0 mm 2 m/s 749 mmHg 89%
05:00 +4°C° 0 mm 2 m/s 749 mmHg 89%
06:00 +4°C° 0 mm 3 m/s 749 mmHg 82%
07:00 +7°C° 0 mm 3 m/s 749 mmHg 76%
08:00 +9°C° 0 mm 3 m/s 749 mmHg 69%
09:00 +10°C° 0 mm 3 m/s 749 mmHg 62%
10:00 +12°C° 0 mm 4 m/s 748 mmHg 55%
11:00 +13°C° 0 mm 4 m/s 748 mmHg 49%
12:00 +14°C° 0 mm 4 m/s 748 mmHg 45%
13:00 +14°C° 0 mm 4 m/s 747 mmHg 42%
14:00 +15°C° 0 mm 4 m/s 747 mmHg 38%
15:00 +15°C° 0 mm 4 m/s 746 mmHg 40%
16:00 +14°C° 0 mm 4 m/s 746 mmHg 42%
17:00 +14°C° 0 mm 4 m/s 745 mmHg 44%
18:00 +12°C° 0 mm 3 m/s 745 mmHg 49%
19:00 +11°C° 0 mm 3 m/s 745 mmHg 55%
20:00 +10°C° 0 mm 3 m/s 745 mmHg 61%
21:00 +9°C° 0 mm 3 m/s 744 mmHg 68%
22:00 +9°C° 0 mm 3 m/s 744 mmHg 75%
23:00 +8°C° 0 mm 3 m/s 744 mmHg 82%

Depois de amanhã, 13 Abril, Terça-feira

Tempo Temperatura Precipitação Vento Pressão Humidade
00:00 +8°C° 0.2 mm 3 m/s 744 mmHg 86%
01:00 +8°C° 0.2 mm 3 m/s 744 mmHg 90%
02:00 +8°C° 0.2 mm 3 m/s 744 mmHg 94%
03:00 +8°C° 0.2 mm 2 m/s 743 mmHg 95%
04:00 +8°C° 0.2 mm 2 m/s 743 mmHg 96%
05:00 +7°C° 0.2 mm 2 m/s 743 mmHg 98%
06:00 +8°C° 0.1 mm 2 m/s 743 mmHg 95%
07:00 +9°C° 0.1 mm 2 m/s 743 mmHg 92%
08:00 +9°C° 0.1 mm 2 m/s 743 mmHg 90%
09:00 +10°C° 0 mm 3 m/s 743 mmHg 84%
10:00 +12°C° 0 mm 3 m/s 743 mmHg 78%
11:00 +13°C° 0 mm 3 m/s 743 mmHg 72%
12:00 +13°C° 0 mm 3 m/s 743 mmHg 72%
13:00 +13°C° 0 mm 3 m/s 742 mmHg 72%
14:00 +13°C° 0 mm 3 m/s 742 mmHg 72%
15:00 +13°C° 0 mm 2 m/s 742 mmHg 77%
16:00 +13°C° 0 mm 2 m/s 742 mmHg 82%
17:00 +12°C° 0 mm 2 m/s 742 mmHg 87%
18:00 +12°C° 0 mm 2 m/s 742 mmHg 89%
19:00 +10°C° 0 mm 2 m/s 742 mmHg 91%
20:00 +11°C° 0 mm 1 m/s 742 mmHg 93%
21:00 +11°C° 0.1 mm 1 m/s 742 mmHg 94%
22:00 +11°C° 0.1 mm 1 m/s 741 mmHg 95%
23:00 +10°C° 0.1 mm 1 m/s 741 mmHg 96%

14 Abril, Quarta-feira

Tempo Temperatura Precipitação Vento Pressão Humidade
00:00 +10°C° 0.6 mm 1 m/s 741 mmHg 96%
01:00 +10°C° 0.6 mm 1 m/s 741 mmHg 97%
02:00 +9°C° 0.6 mm 1 m/s 741 mmHg 97%
03:00 +8°C° 1.4 mm 2 m/s 741 mmHg 97%
04:00 +8°C° 1.4 mm 2 m/s 741 mmHg 97%
05:00 +7°C° 1.4 mm 2 m/s 741 mmHg 97%
06:00 +5°C° 1.3 mm 3 m/s 741 mmHg 97%
07:00 +5°C° 1.3 mm 3 m/s 741 mmHg 96%
08:00 +4°C° 1.3 mm 3 m/s 741 mmHg 96%
09:00 +4°C° 0.6 mm 3 m/s 741 mmHg 95%
10:00 +4°C° 0.6 mm 3 m/s 742 mmHg 95%
11:00 +4°C° 0.6 mm 3 m/s 742 mmHg 94%
12:00 +4°C° 0.2 mm 3 m/s 742 mmHg 94%
13:00 +4°C° 0.2 mm 3 m/s 742 mmHg 94%
14:00 +3°C° 0.2 mm 4 m/s 742 mmHg 93%
15:00 +3°C° 0.1 mm 4 m/s 742 mmHg 93%
16:00 +3°C° 0.1 mm 4 m/s 742 mmHg 94%
17:00 +3°C° 0.1 mm 4 m/s 742 mmHg 94%
18:00 +3°C° 0.2 mm 4 m/s 742 mmHg 94%
19:00 +2°C° 0.2 mm 3 m/s 742 mmHg 94%
20:00 +2°C° 0.2 mm 3 m/s 743 mmHg 94%
21:00 +2°C° 0.2 mm 3 m/s 743 mmHg 94%
22:00 +2°C° 0.2 mm 3 m/s 743 mmHg 94%
23:00 +2°C° 0.2 mm 3 m/s 742 mmHg 95%

15 Abril, Quinta-feira

Tempo Temperatura Precipitação Vento Pressão Humidade
00:00 +2°C° 0.2 mm 3 m/s 742 mmHg 95%
01:00 +2°C° 0.2 mm 3 m/s 742 mmHg 95%
02:00 +2°C° 0.2 mm 3 m/s 742 mmHg 95%
03:00 +2°C° 0.1 mm 3 m/s 742 mmHg 95%
04:00 +1°C° 0.1 mm 3 m/s 742 mmHg 95%
05:00 +1°C° 0.1 mm 3 m/s 742 mmHg 95%
06:00 +1°C° 0.2 mm 3 m/s 742 mmHg 95%
07:00 +1°C° 0.2 mm 3 m/s 743 mmHg 95%
08:00 +1°C° 0.2 mm 3 m/s 743 mmHg 95%
09:00 +1°C° 0.3 mm 4 m/s 743 mmHg 95%
10:00 +1°C° 0.3 mm 4 m/s 743 mmHg 95%
11:00 +1°C° 0.3 mm 4 m/s 743 mmHg 94%
12:00 +1°C° 0.2 mm 4 m/s 743 mmHg 94%
13:00 +1°C° 0.2 mm 4 m/s 743 mmHg 93%
14:00 +1°C° 0.2 mm 4 m/s 744 mmHg 92%
15:00 +1°C° 0.1 mm 4 m/s 744 mmHg 89%
16:00 +3°C° 0.1 mm 4 m/s 744 mmHg 86%
17:00 +3°C° 0.1 mm 3 m/s 744 mmHg 83%
18:00 +3°C° 0 mm 4 m/s 744 mmHg 81%
19:00 +3°C° 0 mm 4 m/s 744 mmHg 78%
20:00 +1°C° 0 mm 4 m/s 745 mmHg 76%
21:00 +1°C° 0 mm 4 m/s 745 mmHg 77%
22:00 0°C° 0 mm 4 m/s 745 mmHg 78%
23:00 -1°C° 0 mm 4 m/s 745 mmHg 79%

16 Abril, Sexta-feira

Tempo Temperatura Precipitação Vento Pressão Humidade
00:00 -1°C° 0 mm 4 m/s 745 mmHg 80%
01:00 -1°C° 0 mm 4 m/s 746 mmHg 80%
02:00 -2°C° 0 mm 4 m/s 746 mmHg 80%
03:00 -2°C° 0 mm 4 m/s 746 mmHg 81%
04:00 -2°C° 0 mm 4 m/s 746 mmHg 81%
05:00 -2°C° 0 mm 4 m/s 747 mmHg 81%
06:00 -1°C° 0 mm 4 m/s 747 mmHg 78%
07:00 0°C° 0 mm 5 m/s 747 mmHg 75%
08:00 +1°C° 0 mm 5 m/s 748 mmHg 73%
09:00 +2°C° 0 mm 5 m/s 748 mmHg 63%
10:00 +3°C° 0 mm 5 m/s 748 mmHg 54%
11:00 +5°C° 0 mm 5 m/s 749 mmHg 45%
12:00 +5°C° 0 mm 5 m/s 749 mmHg 41%
13:00 +6°C° 0 mm 5 m/s 749 mmHg 38%
14:00 +6°C° 0 mm 5 m/s 749 mmHg 35%
15:00 +6°C° 0 mm 5 m/s 749 mmHg 38%
16:00 +6°C° 0 mm 4 m/s 749 mmHg 41%
17:00 +6°C° 0 mm 4 m/s 749 mmHg 44%
18:00 +4°C° 0 mm 3 m/s 750 mmHg 52%
19:00 +2°C° 0 mm 3 m/s 750 mmHg 60%
20:00 +2°C° 0 mm 2 m/s 750 mmHg 68%
21:00 +1°C° 0 mm 2 m/s 751 mmHg 71%
22:00 -1°C° 0 mm 2 m/s 751 mmHg 74%
23:00 -1°C° 0 mm 2 m/s 751 mmHg 76%
Mostrar mais